Time,TemperatureF,DewpointF,PressureIn,WindDirection,WindDirectionDegrees,WindSpeedMPH,WindSpeedGustMPH,Humidity,HourlyPrecipIn,Conditions,Clouds,dailyrainin,SoftwareType,DateUTC
2013-03-28 00:10:00,44.4,34.0,30.29,SSE,167,6.0,-999.0,67,-99.99,,,0.00,weatherlink.com 1.10,2013-03-28 05:10:00,
2013-03-28 00:25:00,43.9,34.0,30.28,South,172,6.0,-999.0,69,-99.99,,,0.00,weatherlink.com 1.10,2013-03-28 05:25:00,
2013-03-28 00:40:00,43.5,34.0,30.28,SSE,167,8.0,-999.0,70,-99.99,,,0.00,weatherlink.com 1.10,2013-03-28 05:40:00,
2013-03-28 00:55:00,43.0,34.0,30.28,SSE,165,5.0,-999.0,71,-99.99,,,0.00,weatherlink.com 1.10,2013-03-28 05:55:00,
2013-03-28 01:12:00,42.8,34.0,30.28,SSE,168,5.0,-999.0,71,-99.99,,,0.00,weatherlink.com 1.10,2013-03-28 06:12:00,
2013-03-28 01:25:00,43.2,34.0,30.28,South,173,6.0,-999.0,71,-99.99,,,0.00,weatherlink.com 1.10,2013-03-28 06:25:00,
2013-03-28 01:40:00,43.4,34.0,30.27,SSE,165,7.0,-999.0,70,-99.99,,,0.00,weatherlink.com 1.10,2013-03-28 06:40:00,
2013-03-28 01:55:00,43.3,34.0,30.27,South,178,5.0,-999.0,70,-99.99,,,0.00,weatherlink.com 1.10,2013-03-28 06:55:00,
2013-03-28 02:10:00,43.7,34.0,30.27,South,174,6.0,-999.0,68,-99.99,,,0.00,weatherlink.com 1.10,2013-03-28 07:10:00,
2013-03-28 02:25:00,43.6,34.0,30.27,South,175,12.0,-999.0,68,-99.99,,,0.00,weatherlink.com 1.10,2013-03-28 07:25:00,
2013-03-28 02:40:00,43.2,34.0,30.26,South,170,12.0,-999.0,69,-99.99,,,0.00,weatherlink.com 1.10,2013-03-28 07:40:00,
2013-03-28 02:55:00,43.1,34.0,30.26,South,175,7.0,-999.0,69,-99.99,,,0.00,weatherlink.com 1.10,2013-03-28 07:55:00,
2013-03-28 03:10:00,43.5,33.0,30.26,SSE,165,7.0,-999.0,66,-99.99,,,0.00,weatherlink.com 1.10,2013-03-28 08:10:00,
2013-03-28 03:25:00,43.4,33.0,30.25,South,176,6.0,-999.0,66,-99.99,,,0.00,weatherlink.com 1.10,2013-03-28 08:25:00,
2013-03-28 03:40:00,43.8,32.0,30.25,South,189,4.0,-999.0,63,-99.99,,,0.00,weatherlink.com 1.10,2013-03-28 08:40:00,
2013-03-28 03:55:00,44.4,31.0,30.25,South,180,5.0,-999.0,59,-99.99,,,0.00,weatherlink.com 1.10,2013-03-28 08:55:00,
2013-03-28 04:10:00,45.1,30.0,30.24,SSW,200,5.0,-999.0,56,-99.99,,,0.00,weatherlink.com 1.10,2013-03-28 09:10:00,
2013-03-28 04:25:00,45.7,30.0,30.24,SSW,206,12.0,-999.0,55,-99.99,,,0.00,weatherlink.com 1.10,2013-03-28 09:25:00,
2013-03-28 04:40:00,45.6,30.0,30.24,SSW,202,10.0,-999.0,54,-99.99,,,0.00,weatherlink.com 1.10,2013-03-28 09:40:00,
2013-03-28 04:55:00,45.7,30.0,30.24,SSW,197,4.0,-999.0,54,-99.99,,,0.00,weatherlink.com 1.10,2013-03-28 09:55:00,
2013-03-28 05:10:00,45.9,29.0,30.24,South,182,7.0,-999.0,53,-99.99,,,0.00,weatherlink.com 1.10,2013-03-28 10:10:00,
2013-03-28 05:25:00,46.0,29.0,30.24,SSW,205,11.0,-999.0,52,-99.99,,,0.00,weatherlink.com 1.10,2013-03-28 10:25:00,
2013-03-28 05:40:00,46.2,29.0,30.24,SW,215,11.0,-999.0,52,-99.99,,,0.00,weatherlink.com 1.10,2013-03-28 10:40:00,
2013-03-28 05:55:00,46.4,29.0,30.24,South,189,8.0,-999.0,51,-99.99,,,0.00,weatherlink.com 1.10,2013-03-28 10:55:00,
2013-03-28 06:10:00,46.2,29.0,30.24,SSW,202,4.0,-999.0,52,-99.99,,,0.00,weatherlink.com 1.10,2013-03-28 11:10:00,
2013-03-28 06:25:00,45.9,29.0,30.24,SSW,209,7.0,-999.0,53,-99.99,,,0.00,weatherlink.com 1.10,2013-03-28 11:25:00,
2013-03-28 06:40:00,45.6,30.0,30.24,SSW,200,8.0,-999.0,54,-99.99,,,0.00,weatherlink.com 1.10,2013-03-28 11:40:00,
2013-03-28 06:55:00,45.5,30.0,30.24,SSW,198,3.0,-999.0,54,-99.99,,,0.00,weatherlink.com 1.10,2013-03-28 11:55:00,
2013-03-28 07:10:00,45.2,30.0,30.24,SSW,202,4.0,-999.0,55,-99.99,,,0.00,weatherlink.com 1.10,2013-03-28 12:10:00,
2013-03-28 07:25:00,45.0,30.0,30.25,SSW,195,2.0,-999.0,56,-99.99,,,0.00,weatherlink.com 1.10,2013-03-28 12:25:00,
2013-03-28 07:40:00,45.0,30.0,30.25,SSW,200,2.0,-999.0,57,-99.99,,,0.00,weatherlink.com 1.10,2013-03-28 12:40:00,
2013-03-28 07:55:00,45.2,31.0,30.25,SSW,213,2.0,-999.0,58,-99.99,,,0.00,weatherlink.com 1.10,2013-03-28 12:55:00,
2013-03-28 08:10:00,45.5,32.0,30.26,SSW,210,1.0,-999.0,59,-99.99,,,0.00,weatherlink.com 1.10,2013-03-28 13:10:00,
2013-03-28 08:25:00,45.6,32.0,30.27,SSW,209,0.0,-999.0,59,-99.99,,,0.00,weatherlink.com 1.10,2013-03-28 13:25:00,
2013-03-28 08:40:00,46.7,32.0,30.27,SSW,212,6.0,-999.0,58,-99.99,,,0.00,weatherlink.com 1.10,2013-03-28 13:40:00,
2013-03-28 08:55:00,47.5,33.0,30.28,SSW,205,5.0,-999.0,57,-99.99,,,0.00,weatherlink.com 1.10,2013-03-28 13:55:00,
2013-03-28 09:10:00,47.7,32.0,30.28,SW,225,3.0,-999.0,56,-99.99,,,0.00,weatherlink.com 1.10,2013-03-28 14:10:00,
2013-03-28 09:25:00,48.2,34.0,30.28,SW,219,0.0,-999.0,58,-99.99,,,0.00,weatherlink.com 1.10,2013-03-28 14:25:00,
2013-03-28 09:40:00,49.7,35.0,30.28,SW,218,3.0,-999.0,57,-99.99,,,0.00,weatherlink.com 1.10,2013-03-28 14:40:00,
2013-03-28 09:55:00,50.5,36.0,30.28,SW,236,1.0,-999.0,57,-99.99,,,0.00,weatherlink.com 1.10,2013-03-28 14:55:00,
2013-03-28 10:10:00,51.0,36.0,30.28,SW,229,0.0,-999.0,57,-99.99,,,0.00,weatherlink.com 1.10,2013-03-28 15:10:00,
2013-03-28 10:25:00,52.1,36.0,30.28,SW,229,2.0,-999.0,55,-99.99,,,0.00,weatherlink.com 1.10,2013-03-28 15:25:00,
2013-03-28 10:40:00,52.8,37.0,30.28,SW,225,0.0,-999.0,56,-99.99,,,0.00,weatherlink.com 1.10,2013-03-28 15:40:00,
2013-03-28 10:55:00,54.1,41.0,30.28,SW,227,2.0,-999.0,61,-99.99,,,0.00,weatherlink.com 1.10,2013-03-28 15:55:00,
2013-03-28 11:10:00,55.3,40.0,30.28,WSW,240,1.0,-999.0,57,-99.99,,,0.00,weatherlink.com 1.10,2013-03-28 16:10:00,
2013-03-28 11:25:00,55.7,40.0,30.28,WSW,238,1.0,-999.0,57,-99.99,,,0.00,weatherlink.com 1.10,2013-03-28 16:25:00,
2013-03-28 11:40:00,55.9,41.0,30.27,SW,227,4.0,-999.0,57,-99.99,,,0.00,weatherlink.com 1.10,2013-03-28 16:40:00,
2013-03-28 11:56:00,56.3,42.0,30.28,SSW,198,0.0,-999.0,59,-99.99,,,0.00,weatherlink.com 1.10,2013-03-28 16:56:00,
2013-03-28 12:10:00,57.6,43.0,30.27,SW,228,0.0,-999.0,58,-99.99,,,0.00,weatherlink.com 1.10,2013-03-28 17:10:00,
2013-03-28 12:26:00,58.1,43.0,30.27,West,264,3.0,-999.0,58,-99.99,,,0.00,weatherlink.com 1.10,2013-03-28 17:26:00,
2013-03-28 12:40:00,59.0,44.0,30.26,WSW,240,0.0,-999.0,57,-99.99,,,0.00,weatherlink.com 1.10,2013-03-28 17:40:00,
2013-03-28 12:56:00,59.9,44.0,30.26,SW,227,0.0,-999.0,56,-99.99,,,0.00,weatherlink.com 1.10,2013-03-28 17:56:00,
2013-03-28 13:11:00,60.8,44.0,30.25,SSW,198,1.0,-999.0,54,-99.99,,,0.00,weatherlink.com 1.10,2013-03-28 18:11:00,
2013-03-28 13:26:00,61.5,44.0,30.25,SSW,211,0.0,-999.0,53,-99.99,,,0.00,weatherlink.com 1.10,2013-03-28 18:26:00,
2013-03-28 13:41:00,62.3,45.0,30.24,SW,230,3.0,-999.0,53,-99.99,,,0.00,weatherlink.com 1.10,2013-03-28 18:41:00,
2013-03-28 14:00:00,63.8,45.0,30.23,SSW,213,4.0,-999.0,51,-99.99,,,0.00,weatherlink.com 1.10,2013-03-28 19:00:00,
2013-03-28 14:11:00,62.3,45.0,30.22,SSW,197,1.0,-999.0,54,-99.99,,,0.00,weatherlink.com 1.10,2013-03-28 19:11:00,
2013-03-28 14:26:00,63.0,46.0,30.21,SW,217,0.0,-999.0,54,-99.99,,,0.00,weatherlink.com 1.10,2013-03-28 19:26:00,
2013-03-28 14:41:00,64.3,46.0,30.20,SW,227,3.0,-999.0,51,-99.99,,,0.00,weatherlink.com 1.10,2013-03-28 19:41:00,
2013-03-28 14:56:00,64.9,46.0,30.20,SSW,211,0.0,-999.0,51,-99.99,,,0.00,weatherlink.com 1.10,2013-03-28 19:56:00,
2013-03-28 15:11:00,66.1,47.0,30.19,SSW,208,0.0,-999.0,50,-99.99,,,0.00,weatherlink.com 1.10,2013-03-28 20:11:00,
2013-03-28 15:26:00,65.4,46.0,30.19,SSW,196,6.0,-999.0,50,-99.99,,,0.00,weatherlink.com 1.10,2013-03-28 20:26:00,
2013-03-28 15:41:00,65.4,46.0,30.18,SSW,201,3.0,-999.0,50,-99.99,,,0.00,weatherlink.com 1.10,2013-03-28 20:41:00,
2013-03-28 15:56:00,65.4,46.0,30.17,SSW,200,1.0,-999.0,50,-99.99,,,0.00,weatherlink.com 1.10,2013-03-28 20:56:00,
2013-03-28 16:11:00,66.8,46.0,30.17,SSW,200,2.0,-999.0,48,-99.99,,,0.00,weatherlink.com 1.10,2013-03-28 21:11:00,
2013-03-28 16:26:00,66.0,46.0,30.17,South,177,5.0,-999.0,49,-99.99,,,0.00,weatherlink.com 1.10,2013-03-28 21:26:00,
2013-03-28 16:41:00,65.8,45.0,30.17,SW,234,3.0,-999.0,48,-99.99,,,0.00,weatherlink.com 1.10,2013-03-28 21:41:00,
2013-03-28 16:56:00,65.1,45.0,30.17,SW,230,0.0,-999.0,49,-99.99,,,0.00,weatherlink.com 1.10,2013-03-28 21:56:00,
2013-03-28 17:11:00,64.7,45.0,30.17,SSW,210,2.0,-999.0,50,-99.99,,,0.00,weatherlink.com 1.10,2013-03-28 22:11:00,
2013-03-28 17:26:00,64.9,46.0,30.16,SW,234,8.0,-999.0,50,-99.99,,,0.00,weatherlink.com 1.10,2013-03-28 22:26:00,
2013-03-28 17:41:00,64.7,46.0,30.16,SSW,194,2.0,-999.0,52,-99.99,,,0.00,weatherlink.com 1.10,2013-03-28 22:41:00,
2013-03-28 17:56:00,64.0,46.0,30.16,SSE,163,0.0,-999.0,52,-99.99,,,0.00,weatherlink.com 1.10,2013-03-28 22:56:00,
2013-03-28 18:11:00,63.3,46.0,30.16,SSW,200,1.0,-999.0,54,-99.99,,,0.00,weatherlink.com 1.10,2013-03-28 23:11:00,
2013-03-28 18:26:00,62.6,45.0,30.17,SSW,194,3.0,-999.0,53,-99.99,,,0.00,weatherlink.com 1.10,2013-03-28 23:26:00,
2013-03-28 18:41:00,62.3,46.0,30.16,SSW,202,0.0,-999.0,55,-99.99,,,0.00,weatherlink.com 1.10,2013-03-28 23:41:00,
2013-03-28 18:56:00,62.1,46.0,30.17,SSW,196,0.0,-999.0,56,-99.99,,,0.00,weatherlink.com 1.10,2013-03-28 23:56:00,
2013-03-28 19:11:00,61.5,46.0,30.17,SSW,198,3.0,-999.0,58,-99.99,,,0.00,weatherlink.com 1.10,2013-03-29 00:11:00,
2013-03-28 19:26:00,60.8,46.0,30.17,SSW,202,3.0,-999.0,59,-99.99,,,0.00,weatherlink.com 1.10,2013-03-29 00:26:00,
2013-03-28 19:41:00,60.6,46.0,30.17,SSW,197,3.0,-999.0,60,-99.99,,,0.00,weatherlink.com 1.10,2013-03-29 00:41:00,
2013-03-28 19:56:00,60.5,46.0,30.17,South,190,6.0,-999.0,60,-99.99,,,0.00,weatherlink.com 1.10,2013-03-29 00:56:00,
2013-03-28 20:11:00,60.5,46.0,30.17,SSW,194,5.0,-999.0,60,-99.99,,,0.00,weatherlink.com 1.10,2013-03-29 01:11:00,
2013-03-28 20:26:00,60.4,47.0,30.17,South,180,5.0,-999.0,61,-99.99,,,0.00,weatherlink.com 1.10,2013-03-29 01:26:00,
2013-03-28 20:41:00,60.3,47.0,30.18,SW,227,4.0,-999.0,61,-99.99,,,0.00,weatherlink.com 1.10,2013-03-29 01:41:00,
2013-03-28 20:56:00,60.0,47.0,30.18,SSW,201,7.0,-999.0,63,-99.99,,,0.00,weatherlink.com 1.10,2013-03-29 01:56:00,
2013-03-28 21:11:00,59.7,47.0,30.18,SSW,209,3.0,-999.0,63,-99.99,,,0.00,weatherlink.com 1.10,2013-03-29 02:11:00,
2013-03-28 21:26:00,59.3,47.0,30.18,SW,229,2.0,-999.0,65,-99.99,,,0.00,weatherlink.com 1.10,2013-03-29 02:26:00,
2013-03-28 21:41:00,59.1,47.0,30.19,SW,226,2.0,-999.0,65,-99.99,,,0.00,weatherlink.com 1.10,2013-03-29 02:41:00,
2013-03-28 21:56:00,58.7,47.0,30.20,SW,233,5.0,-999.0,66,-99.99,,,0.00,weatherlink.com 1.10,2013-03-29 02:56:00,
2013-03-28 22:11:00,58.6,48.0,30.20,WSW,249,7.0,-999.0,67,-99.99,,,0.00,weatherlink.com 1.10,2013-03-29 03:11:00,
2013-03-28 22:26:00,58.4,48.0,30.20,SSW,207,3.0,-999.0,68,-99.99,,,0.00,weatherlink.com 1.10,2013-03-29 03:26:00,
2013-03-28 22:41:00,58.5,48.0,30.19,SW,227,5.0,-999.0,68,-99.99,,,0.00,weatherlink.com 1.10,2013-03-29 03:41:00,
2013-03-28 22:56:00,58.5,48.0,30.19,SW,218,3.0,-999.0,68,-99.99,,,0.00,weatherlink.com 1.10,2013-03-29 03:56:00,
2013-03-28 23:11:00,58.0,48.0,30.19,SW,235,4.0,-999.0,69,-99.99,,,0.00,weatherlink.com 1.10,2013-03-29 04:11:00,
2013-03-28 23:26:00,58.0,48.0,30.19,SW,236,5.0,-999.0,69,-99.99,,,0.00,weatherlink.com 1.10,2013-03-29 04:26:00,
2013-03-28 23:41:00,58.0,48.0,30.18,SSW,211,7.0,-999.0,69,-99.99,,,0.00,weatherlink.com 1.10,2013-03-29 04:41:00,
2013-03-28 23:56:00,57.9,47.0,30.18,SW,215,5.0,-999.0,68,-99.99,,,0.00,weatherlink.com 1.10,2013-03-29 04:56:00,